,,Stat5,,Stat1,,Stat2,,Stat3,,Stat4,,Wind1,,Wind1,
time,status,PA1M_AVG,status,PR1M_SUM,status,RH1M_AVG,status,SR1M_AVG,status,TA1M_AVG,status,W1dAve1m,status,W1sAve1m,
2001-04-11, 00:00:00,VALID,920.346,VALID,0,VALID,98.9092,VALID,-0.0169808,VALID,19.616,VALID,136,VALID,0.0627056,
2001-04-11, 00:01:00,VALID,920.349,VALID,0,VALID,98.9512,VALID,-0.0849042,VALID,19.652,VALID,136,VALID,0.231208,
2001-04-11, 00:02:00,VALID,920.326,VALID,0,VALID,98.9359,VALID,-0.0339617,VALID,19.6684,VALID,136,VALID,0.239309,
2001-04-11, 00:03:00,VALID,920.308,VALID,0,VALID,98.9334,VALID,-0.0339617,VALID,19.6615,VALID,136,VALID,0.344595,
2001-04-11, 00:04:00,VALID,920.299,VALID,0,VALID,98.9346,VALID,0.0509425,VALID,19.66,VALID,136,VALID,0.149771,
2001-04-11, 00:05:00,VALID,920.293,VALID,0,VALID,98.9486,VALID,0.0849042,VALID,19.6793,VALID,136,VALID,0,
2001-04-11, 00:06:00,VALID,920.288,VALID,0,VALID,98.9664,VALID,0.0509425,VALID,19.6995,VALID,136,VALID,0,
2001-04-11, 00:07:00,VALID,920.269,VALID,0,VALID,98.9779,VALID,-0.0169808,VALID,19.7194,VALID,136,VALID,0,
2001-04-11, 00:08:00,VALID,920.274,VALID,0,VALID,98.9855,VALID,-0.0339617,VALID,19.733,VALID,136,VALID,0,
2001-04-11, 00:09:00,VALID,920.279,VALID,0,VALID,98.9881,VALID,-0.0509425,VALID,19.7392,VALID,136,VALID,0,
2001-04-11, 00:10:00,VALID,920.26,VALID,0,VALID,98.9677,VALID,-0.0679233,VALID,19.737,VALID,136,VALID,0,
2001-04-11, 00:11:00,VALID,920.254,VALID,0,VALID,98.9588,VALID,-0.0339617,VALID,19.7169,VALID,136,VALID,0,
2001-04-11, 00:12:00,VALID,920.25,VALID,0,VALID,98.9359,VALID,-0.0679233,VALID,19.7035,VALID,136,VALID,0,
2001-04-11, 00:13:00,VALID,920.248,VALID,0,VALID,98.9003,VALID,-0.0339617,VALID,19.6875,VALID,135,VALID,0,
2001-04-11, 00:14:00,VALID,920.253,VALID,0,VALID,98.8851,VALID,-0.0339617,VALID,19.652,VALID,128,VALID,0.197483,
2001-04-11, 00:15:00,VALID,920.252,VALID,0.2,VALID,98.8609,VALID,-0.0509425,VALID,19.6162,VALID,107,VALID,0.363387,
2001-04-11, 00:16:00,VALID,920.247,VALID,0,VALID,98.8736,VALID,-0.0509425,VALID,19.5968,VALID,107,VALID,0.0968339,
2001-04-11, 00:17:00,VALID,920.248,VALID,0,VALID,98.9156,VALID,-0.0679233,VALID,19.6229,VALID,109,VALID,0.203526,
2001-04-11, 00:18:00,VALID,920.248,VALID,0,VALID,98.9029,VALID,-0.0339617,VALID,19.6165,VALID,110,VALID,0,
2001-04-11, 00:19:00,VALID,920.237,VALID,0,VALID,98.88,VALID,-0.0339617,VALID,19.607,VALID,110,VALID,0,
2001-04-11, 00:20:00,VALID,920.233,VALID,0,VALID,98.9016,VALID,-0.0339617,VALID,19.6098,VALID,110,VALID,0,
2001-04-11, 00:21:00,VALID,920.229,VALID,0,VALID,98.8812,VALID,-0.0679233,VALID,19.6006,VALID,110,VALID,0,
2001-04-11, 00:22:00,VALID,920.227,VALID,0,VALID,98.9003,VALID,-0.0509425,VALID,19.6197,VALID,110,VALID,0,
2001-04-11, 00:23:00,VALID,920.217,VALID,0,VALID,98.9486,VALID,0.0509425,VALID,19.6443,VALID,110,VALID,0,
2001-04-11, 00:24:00,VALID,920.21,VALID,0,VALID,98.9639,VALID,0.0339617,VALID,19.6895,VALID,110,VALID,0,
2001-04-11, 00:25:00,VALID,920.198,VALID,0,VALID,98.9512,VALID,0.0509425,VALID,19.693,VALID,110,VALID,0,
2001-04-11, 00:26:00,VALID,920.188,VALID,0,VALID,98.9588,VALID,0.0339617,VALID,19.7089,VALID,110,VALID,0,
2001-04-11, 00:27:00,VALID,920.177,VALID,0,VALID,98.9397,VALID,0.0849042,VALID,19.7156,VALID,110,VALID,0,
2001-04-11, 00:28:00,VALID,920.172,VALID,0,VALID,98.9054,VALID,0.0339617,VALID,19.7025,VALID,107,VALID,0,
2001-04-11, 00:29:00,VALID,920.172,VALID,0,VALID,98.8698,VALID,0,VALID,19.6667,VALID,104,VALID,0,
2001-04-11, 00:30:00,VALID,920.16,VALID,0,VALID,98.838,VALID,0.0169808,VALID,19.6413,VALID,104,VALID,0,
2001-04-11, 00:31:00,VALID,920.162,VALID,0,VALID,98.8622,VALID,0.101885,VALID,19.6376,VALID,104,VALID,0,
2001-04-11, 00:32:00,VALID,920.147,VALID,0,VALID,98.8291,VALID,0.0849042,VALID,19.6252,VALID,110,VALID,0.195929,
2001-04-11, 00:33:00,VALID,920.169,VALID,0,VALID,98.8444,VALID,0.0849042,VALID,19.6252,VALID,113,VALID,0.0304487,
2001-04-11, 00:34:00,VALID,920.175,VALID,0,VALID,98.8418,VALID,0.0679233,VALID,19.6217,VALID,113,VALID,0,
2001-04-11, 00:35:00,VALID,920.173,VALID,0.2,VALID,98.8393,VALID,0.0509425,VALID,19.618,VALID,113,VALID,0,
2001-04-11, 00:36:00,VALID,920.173,VALID,0,VALID,98.7935,VALID,0.0849042,VALID,19.612,VALID,139,VALID,0.0719572,
2001-04-11, 00:37:00,VALID,920.172,VALID,0,VALID,98.7465,VALID,0.0169808,VALID,19.5733,VALID,157,VALID,0.378606,
2001-04-11, 00:38:00,VALID,920.178,VALID,0,VALID,98.7477,VALID,0.0509425,VALID,19.5675,VALID,199,VALID,0.476362,
2001-04-11, 00:39:00,VALID,920.168,VALID,0,VALID,98.7757,VALID,0.0509425,VALID,19.5571,VALID,215,VALID,0.48097,
2001-04-11, 00:40:00,VALID,920.163,VALID,0,VALID,98.7846,VALID,0.0169808,VALID,19.5544,VALID,219,VALID,0.689798,
2001-04-11, 00:41:00,VALID,920.167,VALID,0,VALID,98.8266,VALID,0.0339617,VALID,19.5735,VALID,238,VALID,0.645312,
2001-04-11, 00:42:00,VALID,920.176,VALID,0,VALID,98.8571,VALID,0.0339617,VALID,19.5899,VALID,224,VALID,0.546875,
2001-04-11, 00:43:00,VALID,920.176,VALID,0,VALID,98.8596,VALID,0.0339617,VALID,19.5964,VALID,227,VALID,0.613064,
2001-04-11, 00:44:00,VALID,920.167,VALID,0,VALID,98.8609,VALID,0.0169808,VALID,19.5964,VALID,229,VALID,0.53125,
2001-04-11, 00:45:00,VALID,920.164,VALID,0,VALID,98.8685,VALID,0.0169808,VALID,19.5862,VALID,237,VALID,0.535156,
2001-04-11, 00:46:00,VALID,920.168,VALID,0,VALID,98.8876,VALID,0,VALID,19.5926,VALID,234,VALID,0.174045,
2001-04-11, 00:47:00,VALID,920.148,VALID,0,VALID,98.9003,VALID,0.0169808,VALID,19.5993,VALID,224,VALID,0.120777,
2001-04-11, 00:48:00,VALID,920.149,VALID,0,VALID,98.8825,VALID,0.0169808,VALID,19.5869,VALID,215,VALID,0.0208333,
2001-04-11, 00:49:01,VALID,920.146,VALID,0.2,VALID,98.8863,VALID,0,VALID,19.5705,VALID,214,VALID,0,
2001-04-11, 00:50:01,VALID,920.138,VALID,0,VALID,98.9245,VALID,0.0339617,VALID,19.5638,VALID,214,VALID,0,
2001-04-11, 00:51:00,VALID,920.119,VALID,0,VALID,98.9614,VALID,0.0509425,VALID,19.5899,VALID,210,VALID,0.283346,
2001-04-11, 00:52:00,VALID,920.11,VALID,0,VALID,98.9334,VALID,0.0169808,VALID,19.5765,VALID,204,VALID,0.437695,
2001-04-11, 00:53:00,VALID,920.097,VALID,0,VALID,98.9461,VALID,0.0169808,VALID,19.5733,VALID,209,VALID,0.213199,
2001-04-11, 00:54:00,VALID,920.079,VALID,0,VALID,98.9626,VALID,0,VALID,19.5762,VALID,198,VALID,0.41364,
2001-04-11, 00:55:00,VALID,920.082,VALID,0,VALID,98.9563,VALID,-0.0169808,VALID,19.577,VALID,192,VALID,0.151562,
2001-04-11, 00:56:00,VALID,920.076,VALID,0,VALID,98.9486,VALID,0.0169808,VALID,19.5636,VALID,192,VALID,0.015625,
2001-04-11, 00:57:01,VALID,920.051,VALID,0,VALID,98.9715,VALID,0,VALID,19.5675,VALID,192,VALID,0.119196,
2001-04-11, 00:58:00,VALID,920.046,VALID,0,VALID,98.9652,VALID,0.0169808,VALID,19.5541,VALID,192,VALID,0.0719151,
2001-04-11, 00:59:00,VALID,920.032,VALID,0,VALID,98.9677,VALID,0,VALID,19.5544,VALID,192,VALID,0,
2001-04-11, 01:00:01,VALID,920.007,VALID,0,VALID,98.9766,VALID,0.0169808,VALID,19.5479,VALID,191,VALID,0.00105574,
2001-04-11, 01:01:00,VALID,919.993,VALID,0.2,VALID,98.9995,VALID,0,VALID,19.5539,VALID,185,VALID,0,
2001-04-11, 01:02:00,VALID,919.991,VALID,0,VALID,99.0033,VALID,0,VALID,19.5506,VALID,185,VALID,0,
2001-04-11, 01:03:00,VALID,919.966,VALID,0,VALID,99.0046,VALID,0.0339617,VALID,19.541,VALID,185,VALID,0,
2001-04-11, 01:04:00,VALID,919.951,VALID,0,VALID,99.0033,VALID,0,VALID,19.5444,VALID,184,VALID,0,
2001-04-11, 01:05:00,VALID,919.932,VALID,0,VALID,99.044,VALID,0.0169808,VALID,19.5737,VALID,183,VALID,0,
2001-04-11, 01:06:00,VALID,919.933,VALID,0,VALID,99.0694,VALID,0,VALID,19.6123,VALID,180,VALID,0,
2001-04-11, 01:07:00,VALID,919.929,VALID,0,VALID,99.0771,VALID,0.0169808,VALID,19.6411,VALID,180,VALID,0,
2001-04-11, 01:08:01,VALID,919.909,VALID,0,VALID,99.0262,VALID,0.0169808,VALID,19.6217,VALID,180,VALID,0,
2001-04-11, 01:09:00,VALID,919.889,VALID,0,VALID,99.0008,VALID,0,VALID,19.5867,VALID,180,VALID,0,
2001-04-11, 01:10:01,VALID,919.884,VALID,0,VALID,98.9855,VALID,-0.0169808,VALID,19.5603,VALID,177,VALID,0.214527,
2001-04-11, 01:11:00,VALID,919.867,VALID,0,VALID,98.9868,VALID,0,VALID,19.5444,VALID,176,VALID,0.0608553,
2001-04-11, 01:12:01,VALID,919.847,VALID,0.2,VALID,99.0046,VALID,0.0169808,VALID,19.541,VALID,165,VALID,0.194511,
2001-04-11, 01:13:00,VALID,919.819,VALID,0,VALID,99.0148,VALID,0.0169808,VALID,19.5479,VALID,168,VALID,0.110377,
2001-04-11, 01:14:00,VALID,919.794,VALID,0,VALID,99.03,VALID,0,VALID,19.5504,VALID,174,VALID,0.0319393,
2001-04-11, 01:15:00,VALID,919.778,VALID,0,VALID,99.044,VALID,0.0169808,VALID,19.5705,VALID,184,VALID,0.337993,
2001-04-11, 01:16:00,VALID,919.758,VALID,0,VALID,99.03,VALID,0,VALID,19.5673,VALID,202,VALID,0.388514,
2001-04-11, 01:17:01,VALID,919.744,VALID,0,VALID,99.0338,VALID,0.0169808,VALID,19.5802,VALID,200,VALID,0.437717,
2001-04-11, 01:18:01,VALID,919.733,VALID,0,VALID,99.016,VALID,-0.0169808,VALID,19.5737,VALID,201,VALID,0.360894,
2001-04-11, 01:19:00,VALID,919.701,VALID,0,VALID,99.0427,VALID,0,VALID,19.5834,VALID,210,VALID,0.0244655,
2001-04-11, 01:20:00,VALID,919.696,VALID,0,VALID,99.044,VALID,0,VALID,19.5924,VALID,179,VALID,0,
2001-04-11, 01:21:00,VALID,919.678,VALID,0,VALID,99.0478,VALID,0,VALID,19.6222,VALID,152,VALID,0.00282118,
2001-04-11, 01:22:00,VALID,919.655,VALID,0,VALID,98.9982,VALID,-0.0169808,VALID,19.6125,VALID,180,VALID,0.462723,
2001-04-11, 01:23:00,VALID,919.64,VALID,0,VALID,98.9461,VALID,0,VALID,19.574,VALID,174,VALID,0.629729,
2001-04-11, 01:24:00,VALID,919.64,VALID,0,VALID,98.9258,VALID,-0.0169808,VALID,19.5479,VALID,181,VALID,0.628606,
2001-04-11, 01:25:01,VALID,919.607,VALID,0,VALID,98.9334,VALID,0,VALID,19.5186,VALID,189,VALID,0.508984,
2001-04-11, 01:26:00,VALID,919.589,VALID,0,VALID,98.9626,VALID,0,VALID,19.5221,VALID,194,VALID,0.324219,
2001-04-11, 01:27:00,VALID,919.58,VALID,0.2,VALID,98.9931,VALID,0,VALID,19.5417,VALID,192,VALID,0.369243,
2001-04-11, 01:28:00,VALID,919.554,VALID,0,VALID,99.0173,VALID,0,VALID,19.5514,VALID,195,VALID,0.22496,
2001-04-11, 01:29:00,VALID,919.541,VALID,0,VALID,99.0275,VALID,-0.0169808,VALID,19.5705,VALID,202,VALID,0.463341,
2001-04-11, 01:30:00,VALID,919.514,VALID,0,VALID,99.0084,VALID,0,VALID,19.5678,VALID,207,VALID,0.731571,
2001-04-11, 01:31:00,VALID,919.49,VALID,0,VALID,99.0046,VALID,-0.0169808,VALID,19.5571,VALID,210,VALID,0.676471,
2001-04-11, 01:32:00,VALID,919.487,VALID,0,VALID,99.0084,VALID,0,VALID,19.5576,VALID,211,VALID,0.482031,
2001-04-11, 01:33:01,VALID,919.473,VALID,0,VALID,99.0008,VALID,0,VALID,19.5514,VALID,217,VALID,0.59375,
2001-04-11, 01:34:00,VALID,919.466,VALID,0,VALID,99.016,VALID,0,VALID,19.5581,VALID,222,VALID,0.433594,
2001-04-11, 01:35:00,VALID,919.451,VALID,0,VALID,99.0313,VALID,0,VALID,19.5611,VALID,221,VALID,0.361698,
2001-04-11, 01:36:00,VALID,919.426,VALID,0,VALID,99.0173,VALID,-0.0169808,VALID,19.5675,VALID,221,VALID,0.224507,
2001-04-11, 01:37:00,VALID,919.416,VALID,0,VALID,99.0275,VALID,0,VALID,19.5611,VALID,214,VALID,0,
2001-04-11, 01:38:00,VALID,919.399,VALID,0,VALID,99.0224,VALID,-0.0169808,VALID,19.5611,VALID,217,VALID,0,
2001-04-11, 01:39:00,VALID,919.373,VALID,0.2,VALID,99.0326,VALID,-0.0169808,VALID,19.5613,VALID,234,VALID,0,
2001-04-11, 01:40:01,VALID,919.37,VALID,0,VALID,99.0338,VALID,0,VALID,19.5606,VALID,217,VALID,0.429893,
2001-04-11, 01:41:01,VALID,919.347,VALID,0,VALID,99.0186,VALID,0.0509425,VALID,19.5504,VALID,234,VALID,0.687289,
2001-04-11, 01:42:00,VALID,919.309,VALID,0,VALID,99.0326,VALID,0,VALID,19.5541,VALID,230,VALID,0.791159,
2001-04-11, 01:43:00,VALID,919.295,VALID,0,VALID,99.0313,VALID,0.0509425,VALID,19.5539,VALID,231,VALID,0.593945,
2001-04-11, 01:44:01,VALID,919.275,VALID,0,VALID,99.0287,VALID,-0.0169808,VALID,19.5439,VALID,235,VALID,0.482525,
2001-04-11, 01:45:00,VALID,919.26,VALID,0,VALID,99.0262,VALID,-0.0169808,VALID,19.5514,VALID,222,VALID,0.781039,
2001-04-11, 01:46:00,VALID,919.258,VALID,0,VALID,99.0211,VALID,0,VALID,19.5246,VALID,221,VALID,0.934375,
2001-04-11, 01:47:01,VALID,919.227,VALID,0,VALID,99.0173,VALID,0,VALID,19.5285,VALID,230,VALID,0.716077,
2001-04-11, 01:48:01,VALID,919.22,VALID,0,VALID,99.0478,VALID,0,VALID,19.5248,VALID,234,VALID,0.609152,
2001-04-11, 01:49:00,VALID,919.204,VALID,0,VALID,99.0453,VALID,0.0339617,VALID,19.541,VALID,235,VALID,0.648438,
2001-04-11, 01:50:00,VALID,919.198,VALID,0,VALID,99.0389,VALID,0.0169808,VALID,19.5414,VALID,229,VALID,0.655382,
2001-04-11, 01:51:01,VALID,919.173,VALID,0,VALID,99.0364,VALID,0,VALID,19.5412,VALID,230,VALID,0.785262,
2001-04-11, 01:52:00,VALID,919.15,VALID,0,VALID,99.0313,VALID,0,VALID,19.5248,VALID,222,VALID,0.736579,
2001-04-11, 01:53:00,VALID,919.127,VALID,0,VALID,99.0237,VALID,0,VALID,19.5154,VALID,221,VALID,0.706003,
2001-04-11, 01:54:01,VALID,919.087,VALID,0,VALID,99.0275,VALID,0.0169808,VALID,19.5126,VALID,220,VALID,0.820313,
2001-04-11, 01:55:00,VALID,919.084,VALID,0,VALID,99.0427,VALID,0,VALID,19.4992,VALID,213,VALID,0.788429,
2001-04-11, 01:56:00,VALID,919.054,VALID,0,VALID,99.0529,VALID,0,VALID,19.5059,VALID,221,VALID,0.6352,
2001-04-11, 01:57:00,VALID,919.049,VALID,0,VALID,99.0618,VALID,0.0169808,VALID,19.5091,VALID,227,VALID,0.774282,
2001-04-11, 01:58:00,VALID,919.039,VALID,0.2,VALID,99.0504,VALID,0.0169808,VALID,19.5124,VALID,221,VALID,0.7831,
2001-04-11, 01:59:01,VALID,919.02,VALID,0,VALID,99.0529,VALID,0.0169808,VALID,19.5124,VALID,216,VALID,0.3752,
2001-04-11, 02:00:00,VALID,919.001,VALID,0,VALID,99.0491,VALID,0,VALID,19.5258,VALID,216,VALID,0.452925,
2001-04-11, 02:01:01,VALID,918.976,VALID,0,VALID,99.0491,VALID,0,VALID,19.526,VALID,212,VALID,0.443412,
2001-04-11, 02:02:00,VALID,918.978,VALID,0,VALID,99.0326,VALID,-0.0169808,VALID,19.5158,VALID,223,VALID,0.616982,
2001-04-11, 02:03:00,VALID,918.962,VALID,0,VALID,99.0364,VALID,0,VALID,19.5285,VALID,216,VALID,0.526242,
2001-04-11, 02:04:00,VALID,918.967,VALID,0,VALID,99.0402,VALID,0,VALID,19.5191,VALID,212,VALID,0.51863,
2001-04-11, 02:05:00,VALID,918.965,VALID,0,VALID,99.0287,VALID,0,VALID,19.5221,VALID,219,VALID,0.612132,
2001-04-11, 02:06:00,VALID,918.941,VALID,0,VALID,99.0351,VALID,0.0169808,VALID,19.526,VALID,217,VALID,0.591077,
2001-04-11, 02:07:00,VALID,918.947,VALID,0,VALID,99.0186,VALID,-0.0169808,VALID,19.5126,VALID,213,VALID,0.722973,
2001-04-11, 02:08:00,VALID,918.925,VALID,0,VALID,99.0122,VALID,0,VALID,19.5126,VALID,217,VALID,0.573351,
2001-04-11, 02:09:00,VALID,918.916,VALID,0,VALID,99.0046,VALID,-0.0339617,VALID,19.5029,VALID,213,VALID,0.930339,
2001-04-11, 02:10:00,VALID,918.902,VALID,0,VALID,99.0186,VALID,0,VALID,19.4997,VALID,204,VALID,0.492599,
2001-04-11, 02:11:01,VALID,918.883,VALID,0,VALID,99.0313,VALID,0,VALID,19.496,VALID,221,VALID,0.52097,
2001-04-11, 02:12:00,VALID,918.866,VALID,0,VALID,99.016,VALID,0,VALID,19.5029,VALID,221,VALID,0.681424,
2001-04-11, 02:13:00,VALID,918.84,VALID,0,VALID,99.0148,VALID,0,VALID,19.4803,VALID,217,VALID,0.86942,
2001-04-11, 02:14:00,VALID,918.826,VALID,0,VALID,99.0186,VALID,-0.0169808,VALID,19.4838,VALID,219,VALID,0.705387,
2001-04-11, 02:15:00,VALID,918.818,VALID,0,VALID,99.0186,VALID,0.0169808,VALID,19.4773,VALID,235,VALID,0.38121,
2001-04-11, 02:16:01,VALID,918.79,VALID,0,VALID,99.0364,VALID,0,VALID,19.4771,VALID,229,VALID,0.470898,
2001-04-11, 02:17:00,VALID,918.785,VALID,0,VALID,99.0402,VALID,0,VALID,19.4835,VALID,212,VALID,0.640625,
2001-04-11, 02:18:00,VALID,918.756,VALID,0,VALID,99.044,VALID,-0.0169808,VALID,19.4773,VALID,206,VALID,0.504523,
2001-04-11, 02:19:01,VALID,918.746,VALID,0,VALID,99.0466,VALID,0,VALID,19.4706,VALID,208,VALID,0.438902,
2001-04-11, 02:20:01,VALID,918.722,VALID,0,VALID,99.0389,VALID,0,VALID,19.4579,VALID,198,VALID,0.22496,
2001-04-11, 02:21:01,VALID,918.716,VALID,0,VALID,99.0707,VALID,-0.0339617,VALID,19.4676,VALID,203,VALID,0.0733964,
2001-04-11, 02:22:01,VALID,918.697,VALID,0,VALID,99.0809,VALID,-0.0169808,VALID,19.4736,VALID,180,VALID,0.0774357,
2001-04-11, 02:23:00,VALID,918.68,VALID,0,VALID,99.0885,VALID,0.101885,VALID,19.4793,VALID,184,VALID,0.138672,
2001-04-11, 02:24:01,VALID,918.685,VALID,0,VALID,99.0834,VALID,0.0849042,VALID,19.4828,VALID,172,VALID,0.366102,
2001-04-11, 02:25:01,VALID,918.681,VALID,0,VALID,99.0898,VALID,0.101885,VALID,19.4726,VALID,204,VALID,0.140842,
2001-04-11, 02:26:00,VALID,918.661,VALID,0,VALID,99.0809,VALID,0.101885,VALID,19.4692,VALID,207,VALID,0.052576,
2001-04-11, 02:27:00,VALID,918.653,VALID,0,VALID,99.086,VALID,0.0849042,VALID,19.4659,VALID,194,VALID,0.140008,
2001-04-11, 02:28:00,VALID,918.641,VALID,0,VALID,99.0796,VALID,0.101885,VALID,19.4696,VALID,177,VALID,0.274089,
2001-04-11, 02:29:00,VALID,918.639,VALID,0,VALID,99.072,VALID,0.101885,VALID,19.4423,VALID,159,VALID,0.53864,
2001-04-11, 02:30:00,VALID,918.644,VALID,0,VALID,99.0822,VALID,0.101885,VALID,19.4465,VALID,173,VALID,0.35612,
2001-04-11, 02:31:01,VALID,918.642,VALID,0,VALID,99.086,VALID,0.101885,VALID,19.4465,VALID,172,VALID,0.0803865,
2001-04-11, 02:32:01,VALID,918.635,VALID,0,VALID,99.0822,VALID,0.101885,VALID,19.4401,VALID,172,VALID,0,
2001-04-11, 02:33:01,VALID,918.622,VALID,0,VALID,99.0885,VALID,0.101885,VALID,19.4334,VALID,208,VALID,0.389101,
2001-04-11, 02:34:00,VALID,918.603,VALID,0,VALID,99.086,VALID,0.101885,VALID,19.4438,VALID,207,VALID,0.54043,
2001-04-11, 02:35:01,VALID,918.597,VALID,0,VALID,99.0911,VALID,0.101885,VALID,19.4371,VALID,219,VALID,0.610609,
2001-04-11, 02:36:01,VALID,918.58,VALID,0,VALID,99.0872,VALID,0.101885,VALID,19.4207,VALID,216,VALID,0.912796,
2001-04-11, 02:37:01,VALID,918.559,VALID,0,VALID,99.086,VALID,0.0679233,VALID,19.4214,VALID,216,VALID,0.692187,
2001-04-11, 02:38:01,VALID,918.534,VALID,0,VALID,99.0949,VALID,0,VALID,19.4122,VALID,218,VALID,0.707854,
2001-04-11, 02:39:01,VALID,918.529,VALID,0,VALID,99.0974,VALID,-0.0339617,VALID,19.4222,VALID,224,VALID,0.484375,
2001-04-11, 02:40:01,VALID,918.519,VALID,0,VALID,99.0974,VALID,0,VALID,19.4189,VALID,208,VALID,0.846154,
2001-04-11, 02:41:01,VALID,918.506,VALID,0,VALID,99.0936,VALID,-0.0169808,VALID,19.406,VALID,211,VALID,0.647135,
2001-04-11, 02:42:01,VALID,918.503,VALID,0,VALID,99.1076,VALID,0,VALID,19.4058,VALID,221,VALID,0.744299,
2001-04-11, 02:43:01,VALID,918.474,VALID,0,VALID,99.1165,VALID,0,VALID,19.4125,VALID,208,VALID,0.362179,
2001-04-11, 02:44:01,VALID,918.477,VALID,0,VALID,99.1089,VALID,0,VALID,19.4063,VALID,211,VALID,0.749178,
2001-04-11, 02:45:01,VALID,918.469,VALID,0,VALID,99.119,VALID,0,VALID,19.403,VALID,198,VALID,0.719367,
2001-04-11, 02:46:01,VALID,918.449,VALID,0,VALID,99.1279,VALID,0,VALID,19.3931,VALID,194,VALID,0.409417,
2001-04-11, 02:47:01,VALID,918.438,VALID,0,VALID,99.1267,VALID,0,VALID,19.3971,VALID,196,VALID,0.428385,
2001-04-11, 02:48:01,VALID,918.417,VALID,0,VALID,99.1381,VALID,0,VALID,19.3968,VALID,204,VALID,0.528294,
2001-04-11, 02:49:01,VALID,918.4,VALID,0,VALID,99.133,VALID,0,VALID,19.3705,VALID,203,VALID,0.565173,
2001-04-11, 02:50:01,VALID,918.386,VALID,0,VALID,99.1597,VALID,0,VALID,19.3839,VALID,205,VALID,0.439103,
2001-04-11, 02:51:01,VALID,918.367,VALID,0,VALID,99.1686,VALID,-0.0169808,VALID,19.3933,VALID,201,VALID,0.494591,
2001-04-11, 02:52:01,VALID,918.342,VALID,0,VALID,99.1572,VALID,0,VALID,19.3996,VALID,191,VALID,0.58636,
2001-04-11, 02:53:01,VALID,918.33,VALID,0,VALID,99.1674,VALID,-0.0509425,VALID,19.3901,VALID,192,VALID,0.0935444,
2001-04-11, 02:54:01,VALID,918.327,VALID,0,VALID,99.1788,VALID,0,VALID,19.403,VALID,240,VALID,0.00661058,
2001-04-11, 02:55:01,VALID,918.304,VALID,0,VALID,99.1775,VALID,-0.0169808,VALID,19.4157,VALID,216,VALID,0.0508814,
2001-04-11, 02:56:01,VALID,918.309,VALID,0,VALID,99.1712,VALID,-0.0339617,VALID,19.406,VALID,216,VALID,0,
2001-04-11, 02:57:00,VALID,918.324,VALID,0,VALID,99.1686,VALID,-0.0339617,VALID,19.4164,VALID,225,VALID,0.26028,
2001-04-11, 02:58:00,VALID,918.325,VALID,0,VALID,99.1534,VALID,-0.0509425,VALID,19.4063,VALID,225,VALID,0.425887,
2001-04-11, 02:59:00,VALID,918.321,VALID,0,VALID,99.1432,VALID,-0.0679233,VALID,19.4063,VALID,225,VALID,0.0757378,
2001-04-11, 03:00:00,VALID,918.327,VALID,0,VALID,99.1445,VALID,-0.0509425,VALID,19.4162,VALID,219,VALID,0.00108507,
2001-04-11, 03:01:00,VALID,918.323,VALID,0,VALID,99.1521,VALID,-0.0509425,VALID,19.4192,VALID,193,VALID,0,
2001-04-11, 03:02:00,VALID,918.322,VALID,0,VALID,99.1368,VALID,-0.0339617,VALID,19.4162,VALID,192,VALID,0.0491365,
2001-04-11, 03:03:00,VALID,918.322,VALID,0,VALID,99.1267,VALID,-0.0169808,VALID,19.4127,VALID,203,VALID,0.0846354,
2001-04-11, 03:04:00,VALID,918.311,VALID,0,VALID,99.1228,VALID,-0.0169808,VALID,19.3968,VALID,204,VALID,0,
2001-04-11, 03:05:00,VALID,918.287,VALID,0,VALID,99.1152,VALID,-0.0339617,VALID,19.4097,VALID,200,VALID,0.254317,
2001-04-11, 03:06:00,VALID,918.278,VALID,0,VALID,99.1152,VALID,-0.0509425,VALID,19.3931,VALID,190,VALID,0.375601,
2001-04-11, 03:07:00,VALID,918.248,VALID,0,VALID,99.0961,VALID,-0.0169808,VALID,19.3869,VALID,184,VALID,0.303516,
2001-04-11, 03:08:00,VALID,918.229,VALID,0,VALID,99.0911,VALID,-0.0339617,VALID,19.371,VALID,182,VALID,0.36287,
2001-04-11, 03:09:00,VALID,918.206,VALID,0,VALID,99.1012,VALID,-0.0339617,VALID,19.3774,VALID,179,VALID,0.203331,
2001-04-11, 03:10:00,VALID,918.185,VALID,0,VALID,99.0974,VALID,0,VALID,19.3675,VALID,172,VALID,0.239383,
2001-04-11, 03:11:00,VALID,918.161,VALID,0,VALID,99.1,VALID,-0.0509425,VALID,19.3707,VALID,163,VALID,0.267628,
2001-04-11, 03:12:00,VALID,918.151,VALID,0,VALID,99.0987,VALID,-0.0509425,VALID,19.3613,VALID,179,VALID,0.44992,
2001-04-11, 03:13:00,VALID,918.144,VALID,0,VALID,99.1038,VALID,-0.0509425,VALID,19.3643,VALID,160,VALID,0.383502,
2001-04-11, 03:14:00,VALID,918.15,VALID,0,VALID,99.1063,VALID,-0.0509425,VALID,19.3608,VALID,158,VALID,0.259766,
2001-04-11, 03:15:00,VALID,918.155,VALID,0,VALID,99.1038,VALID,-0.0679233,VALID,19.3777,VALID,152,VALID,0.0592448,
2001-04-11, 03:16:00,VALID,918.161,VALID,0,VALID,99.0809,VALID,-0.0679233,VALID,19.3548,VALID,156,VALID,0.399523,
2001-04-11, 03:17:00,VALID,918.149,VALID,0,VALID,99.0644,VALID,-0.0509425,VALID,19.3327,VALID,163,VALID,0.459037,
2001-04-11, 03:18:00,VALID,918.141,VALID,0,VALID,99.0529,VALID,-0.0339617,VALID,19.3193,VALID,160,VALID,0.502673,
2001-04-11, 03:19:00,VALID,918.121,VALID,0,VALID,99.0516,VALID,-0.0679233,VALID,19.2935,VALID,160,VALID,0.315104,
2001-04-11, 03:20:00,VALID,918.118,VALID,0,VALID,99.0694,VALID,-0.0169808,VALID,19.3006,VALID,160,VALID,0.387035,
2001-04-11, 03:21:00,VALID,918.094,VALID,0,VALID,99.0466,VALID,-0.0509425,VALID,19.2843,VALID,159,VALID,0.452257,
2001-04-11, 03:22:00,VALID,918.089,VALID,0,VALID,99.0567,VALID,-0.0509425,VALID,19.2778,VALID,138,VALID,0.359786,
2001-04-11, 03:23:00,VALID,918.084,VALID,0,VALID,99.0542,VALID,0.0339617,VALID,19.2634,VALID,142,VALID,0.499789,
2001-04-11, 03:24:00,VALID,918.07,VALID,0,VALID,99.058,VALID,0.0509425,VALID,19.2669,VALID,157,VALID,0.436357,
2001-04-11, 03:25:00,VALID,918.044,VALID,0,VALID,99.0529,VALID,0.0169808,VALID,19.2535,VALID,159,VALID,0.443164,
2001-04-11, 03:26:00,VALID,918.042,VALID,0,VALID,99.0453,VALID,0.0509425,VALID,19.2276,VALID,162,VALID,0.469984,
2001-04-11, 03:27:00,VALID,918.014,VALID,0,VALID,99.0491,VALID,0.0849042,VALID,19.2274,VALID,160,VALID,0.494088,
2001-04-11, 03:28:00,VALID,917.999,VALID,0,VALID,99.0504,VALID,0.0339617,VALID,19.2274,VALID,160,VALID,0.444531,
2001-04-11, 03:29:00,VALID,917.995,VALID,0,VALID,99.0466,VALID,0.0679233,VALID,19.2249,VALID,161,VALID,0.387336,
2001-04-11, 03:30:00,VALID,917.98,VALID,0,VALID,99.0491,VALID,0.0339617,VALID,19.2115,VALID,162,VALID,0.410714,
2001-04-11, 03:31:00,VALID,917.958,VALID,0,VALID,99.0491,VALID,0.0679233,VALID,19.2078,VALID,162,VALID,0.599159,
2001-04-11, 03:32:00,VALID,917.943,VALID,0,VALID,99.0529,VALID,0.0679233,VALID,19.202,VALID,161,VALID,0.428602,
2001-04-11, 03:33:00,VALID,917.93,VALID,0,VALID,99.0682,VALID,0.0339617,VALID,19.2013,VALID,155,VALID,0.554476,
2001-04-11, 03:34:00,VALID,917.915,VALID,0,VALID,99.0656,VALID,0.0679233,VALID,19.2152,VALID,181,VALID,0.0777244,
2001-04-11, 03:35:00,VALID,917.901,VALID,0,VALID,99.0822,VALID,0.0169808,VALID,19.2113,VALID,187,VALID,0.499794,